Overview Statistics Trail Chart Weather Telemetry Raw packets
 

This is the latest recevied weather packets stored in our database for station/object HB9FHL-13. If no packets are shown the sender has not sent any weather packets the latest 10 day(s).

<< 73 74 75 76 77 78 79 >>
Time Temp. Humidity Pressure Rain* Wind** Luminosity Snow
1788216511 18.33° C - 1024.7 hPa 0 mm - - -
1788216206 18.89° C - 1023.1 hPa 0 mm - - -
1788215906 17.78° C - 1025.1 hPa 0 mm - - -
1788215605 18.89° C - 1025.4 hPa 0 mm - - -
1788215305 18.33° C - 1024.2 hPa 0 mm - - -
1788215068 18.33° C - 1024.9 hPa 0 mm - - -
1788215004 18.33° C - 1024.9 hPa 0 mm - - -
1788214704 18.33° C - 1024.1 hPa 0 mm - - -
1788214403 18.33° C - 1028.3 hPa 0 mm - - -
1788214103 18.89° C - 1023.5 hPa 0 mm - - -
1788213803 18.89° C - 1027.7 hPa 0 mm - - -
1788213502 18.33° C - 1021.5 hPa 0 mm - - -
1788213313 18.33° C - 1023.4 hPa 0 mm - - -
1788213220 18.33° C - 1023.4 hPa 0 mm - - -
1788212901 18.89° C - 1024.9 hPa 3.3 mm - - -
1788212597 18.33° C - 1023.7 hPa 3.3 mm - - -
1788212330 18.33° C - 1024.7 hPa 3.3 mm - - -
1788212297 18.33° C - 1024.7 hPa 3.3 mm - - -
1788211996 18.89° C - 1026 hPa 3.3 mm - - -
1788211696 19.44° C - 1023.1 hPa 3.3 mm - - -
1788211434 18.89° C - 1025.3 hPa 3.3 mm - - -
1788211395 18.89° C - 1025.3 hPa 3.3 mm - - -
1788211095 18.89° C - 1025.5 hPa 3.3 mm - - -
1788210888 19.44° C - 1025 hPa 3.3 mm - - -
1788210792 19.44° C - 1025 hPa 3.3 mm - - -

* Rain since midnight (hover to see other rain measurements)
** Current wind speed in m/s (hover to see current wind gust speed)